Wind_Speed
24 26 29 28 27 29 30 30 30 28 28 28 29 29 29 29 30 30 28 27 26 24 22 22 22 23 23 23 23 23 25 27 28 28 29 31 31 31 31 31 31 31 32 33
25 26 30 28 27 30 31 31 31 30 28 28 28 28 28 27 27 27 26 25 23 22 20 19 20 20 21 22 22 22 23 26 28 30 30 29 28 29 29 30 30 31 32 32
25 26 28 26 26 29 30 29 29 29 28 28 27 27 26 25 25 25 24 23 22 22 21 19 19 19 20 22 22 22 24 26 27 27 27 28 27 27 28 28 29 30 30 30
26 26 26 25 26 28 29 27 28 28 28 28 27 26 26 25 24 23 23 22 21 21 20 19 18 19 19 20 20 21 23 25 25 25 25 25 26 26 27 27 27 28 29 29
26 27 25 21 24 27 29 25 26 28 28 29 28 27 26 25 24 23 22 21 20 19 19 18 17 17 17 17 17 17 18 20 21 22 22 23 23 23 23 24 24 25 25 24
27 29 27 23 24 26 27 23 24 27 28 29 29 28 27 25 24 23 22 20 19 18 17 16 15 15 14 14 14 14 14 15 16 17 18 18 18 19 19 20 20 19 18 18
28 29 27 27 28 28 28 25 26 27 28 29 28 29 28 26 24 22 21 20 19 17 16 14 14 13 12 11 11 11 11 11 12 13 13 13 13 13 14 14 13 13 14 15
29 29 28 29 30 29 28 28 27 27 28 28 28 28 28 26 23 22 20 19 19 18 16 14 13 12 11 10 9 8 8 8 9 10 10 11 11 11 11 10 11 11 13 14
31 30 29 30 31 31 31 30 29 28 28 28 27 27 27 26 25 22 21 19 18 17 16 14 13 12 11 10 9 8 8 8 8 9 9 10 10 10 9 10 11 11 12 13
33 31 31 32 32 32 33 32 31 30 30 30 29 28 27 27 25 24 22 21 19 18 17 15 14 12 11 10 9 8 8 7 8 8 9 9 10 10 11 11 11 11 12 13
34 32 32 32 33 34 34 33 32 31 30 29 28 27 27 27 27 26 24 22 21 19 18 17 15 13 12 11 10 9 8 8 8 9 10 10 11 11 11 11 11 12 12 13
38 36 36 34 34 35 35 34 33 32 30 29 28 27 27 28 28 28 25 24 22 21 20 19 17 15 14 13 12 11 10 10 10 10 11 11 12 12 12 12 13 13 13 14
40 40 38 36 35 36 36 36 35 34 32 29 27 27 27 26 27 26 25 24 23 23 21 20 19 18 17 15 14 14 13 13 12 13 13 13 13 14 14 14 14 14 14 14
44 43 41 38 37 37 37 37 36 35 32 30 28 27 26 25 26 27 26 25 23 23 23 22 21 20 19 18 18 17 16 16 15 15 15 15 15 15 15 15 15 15 15 15
45 45 43 41 38 37 37 37 37 36 34 31 30 29 26 26 27 28 27 27 25 24 23 23 23 22 21 21 20 20 19 19 19 18 17 17 17 17 17 17 17 16 16 15
45 44 43 42 40 38 38 38 38 37 36 34 32 31 29 28 27 27 27 27 27 26 25 24 24 23 23 23 23 22 22 22 21 21 20 20 19 19 19 19 18 17 17 16
46 45 44 43 42 40 40 39 40 39 38 37 36 34 31 30 29 28 28 28 28 26 26 25 24 24 23 23 23 23 23 23 23 23 22 22 21 21 20 20 19 19 18 17
49 49 47 46 45 44 43 42 41 42 42 41 38 36 35 33 31 30 29 29 28 26 25 25 25 25 23 22 22 22 23 24 24 24 24 23 23 22 21 21 20 20 19 19
51 53 51 50 50 49 48 47 45 44 45 44 42 40 38 37 36 33 32 31 29 26 26 27 27 26 24 24 23 22 22 23 24 25 26 25 24 23 22 22 22 21 20 20
57 57 58 58 57 56 54 52 49 47 46 46 44 43 42 40 39 36 34 32 29 27 28 30 30 28 26 25 24 23 24 24 24 25 26 26 26 25 24 23 23 22 21 21
65 66 67 68 67 65 63 61 57 53 52 49 45 43 43 42 42 39 36 33 30 30 30 30 31 30 28 27 26 25 24 24 24 25 25 26 26 26 25 24 23 23 22 22
68 69 69 70 70 70 69 68 66 62 59 57 53 49 47 44 44 41 38 35 33 33 32 31 31 31 30 31 30 28 26 25 25 25 25 25 26 26 25 24 24 24 23 23
63 62 62 62 63 63 64 65 67 67 66 63 59 55 51 46 44 43 40 38 37 35 34 33 32 32 32 33 32 30 28 27 26 25 24 23 24 24 24 24 24 24 23 23
56 54 53 52 52 52 53 54 57 60 62 62 60 56 52 47 45 42 40 38 37 36 35 34 34 34 34 34 33 31 29 27 26 25 24 23 23 23 23 23 23 23 22 22
52 49 48 47 46 45 44 45 46 47 49 52 51 50 50 48 44 42 40 38 37 37 36 34 34 35 36 35 34 32 30 28 27 25 24 23 22 22 22 21 21 21 21 21
47 44 42 39 37 36 34 32 31 31 32 34 35 36 39 42 42 40 38 37 36 36 35 35 34 35 35 35 33 32 30 29 27 25 23 22 22 21 20 20 20 20 20 20
37 35 33 31 29 27 25 23 21 21 21 21 23 26 29 32 34 35 35 34 33 33 33 33 34 34 34 33 33 31 30 29 27 24 23 22 21 20 19 19 19 19 19 20
Wind_Direction
293 288 284 284 286 286 287 289 291 294 298 301 304 309 313 317 320 319 317 314 310 307 302 294 285 274 264 261 258 254 251 249 250 250 250 250 251 253 254 257 258 261 263 265
299 295 289 286 285 284 284 287 288 290 294 296 301 306 310 316 320 320 319 316 311 309 308 301 295 280 268 265 260 255 251 249 252 252 252 253 254 255 256 258 260 261 263 265
309 304 301 300 292 287 287 287 288 289 290 292 295 301 307 314 319 320 320 316 311 308 308 303 296 287 279 271 267 262 256 252 252 255 255 256 258 259 259 260 262 263 265 267
315 311 309 311 299 293 291 289 288 287 286 287 290 296 301 307 314 319 320 320 315 312 310 305 298 291 288 282 274 269 262 257 256 257 259 260 262 261 263 264 264 265 268 270
322 319 322 320 304 297 295 293 290 286 283 283 286 290 294 300 307 312 317 320 320 317 316 312 306 300 299 295 288 280 271 266 265 264 265 266 268 267 266 266 267 269 270 271
325 324 327 324 307 303 301 299 287 285 285 283 283 285 287 291 297 305 312 317 320 321 320 319 316 310 306 302 295 289 279 274 269 266 265 266 266 266 266 265 266 269 271 273
320 321 327 319 312 309 306 303 292 288 285 285 283 283 283 284 288 294 303 309 315 320 324 324 324 320 313 307 301 294 285 275 268 265 262 264 266 267 265 264 267 270 273 276
315 318 320 314 312 312 308 302 298 293 290 286 282 279 279 280 282 285 292 299 305 311 316 321 325 325 320 312 304 296 288 278 270 264 259 259 263 265 266 267 271 273 276 281
314 317 313 310 309 310 308 305 301 297 293 289 284 278 277 278 279 280 283 289 295 300 306 311 316 320 319 312 302 291 283 276 268 264 262 260 260 261 263 266 271 275 280 286
314 314 308 307 307 306 305 304 302 299 295 291 287 279 275 276 276 277 278 281 284 288 292 297 301 305 308 309 304 294 283 273 267 264 262 260 261 264 266 270 275 279 285 290
313 308 303 303 301 300 300 300 300 298 295 292 287 280 276 275 273 274 275 275 277 279 281 282 285 289 291 293 294 291 285 277 271 268 267 267 267 268 270 274 278 282 286 291
311 308 305 301 296 294 294 295 295 294 293 289 285 279 275 274 273 272 271 271 271 273 274 275 275 276 276 278 280 280 278 275 273 271 270 270 271 272 274 276 280 283 287 294
308 306 304 301 295 292 291 291 291 291 290 287 284 280 275 273 272 269 268 268 268 267 268 270 270 270 268 267 268 269 271 271 270 270 271 272 273 274 276 278 281 282 286 294
305 304 302 299 295 291 289 288 287 287 287 285 282 281 277 272 270 268 266 266 266 266 265 265 266 266 266 263 262 262 263 264 265 267 269 271 273 275 276 278 280 280 284 291
302 301 300 298 294 290 287 286 285 283 282 279 278 278 276 271 269 266 264 264 265 264 264 264 265 264 264 262 261 259 258 259 261 263 265 267 270 273 275 277 278 279 281 287
298 297 296 294 292 288 284 283 283 281 278 275 273 273 271 269 268 265 263 263 263 264 263 263 263 265 265 263 261 260 258 258 258 260 262 264 266 269 271 273 274 275 278 283
298 295 293 290 288 285 282 280 278 277 275 272 269 267 267 267 266 264 262 261 261 262 263 262 262 265 266 265 264 261 259 258 257 258 260 261 262 264 266 269 271 272 275 280
295 294 294 292 288 284 281 278 277 274 270 266 263 263 263 262 263 261 260 259 259 262 263 263 264 263 262 263 265 264 263 260 257 256 258 259 260 261 263 265 267 269 272 277
291 288 287 285 284 283 281 279 278 273 268 263 257 257 259 260 259 257 256 256 257 259 259 259 262 263 261 261 264 266 267 266 261 257 256 256 257 258 260 262 265 267 270 275
288 285 283 280 278 279 278 276 274 269 266 261 255 253 254 255 255 254 253 253 254 255 255 256 259 263 262 263 265 266 268 268 267 263 258 256 254 254 256 258 262 265 270 274
285 284 281 279 278 276 275 273 270 266 261 258 255 252 249 249 250 250 249 248 249 252 253 256 259 262 263 263 266 268 269 269 269 268 264 259 254 252 254 256 259 262 267 271
287 285 283 282 280 277 275 272 268 265 262 259 255 253 251 248 246 246 246 246 245 248 252 255 258 261 262 262 263 265 267 268 269 269 267 261 254 252 252 254 256 260 264 269
294 292 290 288 285 281 278 274 270 267 265 263 260 259 254 248 246 245 245 246 247 248 251 254 257 259 259 259 259 260 263 265 267 268 266 261 255 251 252 254 256 259 263 269
302 300 298 295 292 288 283 278 273 270 268 266 263 261 256 252 248 247 247 247 247 248 250 253 255 256 257 256 256 256 258 261 264 265 264 261 256 253 253 256 258 262 266 271
307 305 302 300 298 295 289 283 278 274 270 268 265 262 258 253 250 249 247 246 246 248 251 253 254 253 254 253 253 254 254 254 258 260 261 259 256 254 254 256 260 264 269 273
311 310 309 307 306 304 300 292 284 277 271 266 262 258 255 253 251 250 248 247 247 248 249 251 251 250 250 250 250 250 248 248 251 254 256 256 254 252 253 256 260 266 272 276
318 318 318 317 317 314 310 304 293 281 269 257 247 242 242 243 244 245 246 244 244 245 247 247 247 246 246 245 245 244 244 246 246 247 251 253 252 251 252 256 261 266 272 278
Height
5796 5793 5790 5789 5787 5784 5781 5779 5777 5775 5772 5769 5765 5761 5758 5753 5748 5743 5738 5733 5729 5725 5722 5719 5717 5716 5717 5718 5718 5719 5720 5722 5723 5724 5726 5727 5729 5731 5733 5735 5736 5738 5738 5739
5789 5786 5782 5781 5780 5776 5774 5771 5769 5767 5765 5762 5758 5755 5751 5747 5743 5738 5734 5730 5726 5722 5718 5715 5713 5712 5711 5711 5711 5712 5713 5714 5715 5716 5717 5719 5721 5723 5725 5726 5728 5729 5730 5730
5782 5779 5774 5773 5772 5768 5765 5763 5761 5759 5758 5755 5752 5749 5745 5742 5738 5734 5730 5726 5723 5719 5715 5712 5709 5707 5706 5706 5705 5705 5706 5707 5707 5708 5709 5711 5713 5715 5717 5718 5720 5721 5722 5722
5776 5773 5769 5770 5763 5760 5757 5756 5754 5752 5750 5747 5745 5743 5740 5737 5734 5730 5727 5723 5719 5715 5712 5708 5705 5703 5701 5700 5699 5699 5700 5700 5701 5702 5703 5704 5706 5708 5710 5711 5712 5713 5713 5714
5771 5767 5765 5764 5758 5752 5749 5750 5747 5744 5742 5740 5738 5736 5734 5731 5729 5726 5723 5719 5715 5712 5708 5705 5702 5699 5697 5695 5694 5694 5694 5695 5695 5696 5698 5699 5700 5702 5703 5704 5705 5706 5706 5707
5767 5761 5759 5759 5753 5747 5745 5744 5741 5737 5735 5733 5731 5730 5728 5726 5723 5721 5718 5715 5712 5708 5705 5701 5698 5696 5694 5692 5691 5690 5690 5690 5691 5692 5693 5694 5695 5696 5697 5698 5699 5700 5700 5701
5762 5757 5754 5752 5746 5742 5739 5738 5734 5730 5728 5726 5724 5722 5721 5719 5717 5715 5713 5711 5708 5705 5701 5698 5695 5693 5691 5689 5687 5687 5686 5687 5687 5688 5689 5690 5691 5692 5692 5693 5694 5695 5695 5696
5757 5753 5751 5745 5740 5737 5733 5729 5726 5723 5720 5718 5716 5714 5712 5711 5710 5709 5707 5705 5703 5701 5698 5695 5692 5690 5688 5686 5685 5684 5684 5684 5684 5685 5686 5687 5688 5688 5689 5690 5690 5691 5691 5691
5751 5749 5744 5738 5733 5730 5725 5722 5719 5715 5713 5710 5708 5706 5704 5703 5702 5701 5701 5700 5698 5696 5694 5692 5690 5687 5686 5684 5683 5682 5681 5681 5682 5682 5683 5684 5684 5685 5685 5686 5686 5687 5687 5686
5744 5741 5736 5732 5727 5722 5718 5714 5711 5708 5705 5702 5700 5698 5696 5695 5694 5694 5694 5693 5692 5691 5689 5688 5686 5684 5683 5682 5680 5679 5679 5679 5679 5680 5680 5681 5681 5682 5682 5683 5683 5683 5682 5682
5736 5733 5728 5724 5719 5714 5710 5706 5702 5699 5696 5694 5692 5690 5688 5687 5686 5686 5686 5686 5685 5684 5684 5683 5682 5681 5680 5678 5678 5677 5677 5676 5677 5677 5677 5678 5678 5678 5679 5679 5679 5679 5678 5678
5727 5723 5718 5715 5710 5705 5701 5697 5694 5691 5688 5686 5684 5682 5680 5679 5678 5678 5678 5678 5678 5678 5677 5677 5676 5676 5675 5674 5674 5674 5674 5674 5674 5674 5674 5674 5675 5675 5675 5675 5675 5675 5674 5673
5717 5712 5708 5705 5700 5695 5691 5688 5684 5681 5679 5677 5676 5674 5672 5671 5670 5669 5669 5670 5670 5670 5670 5670 5670 5670 5669 5669 5669 5670 5670 5670 5670 5670 5670 5671 5671 5671 5671 5671 5671 5670 5670 5668
5706 5701 5698 5694 5689 5685 5681 5678 5675 5672 5670 5668 5667 5665 5664 5663 5662 5661 5661 5662 5662 5662 5663 5663 5663 5663 5663 5663 5663 5664 5664 5665 5665 5666 5666 5666 5666 5666 5666 5666 5666 5666 5665 5664
5694 5689 5685 5681 5678 5674 5670 5667 5664 5662 5660 5658 5657 5656 5655 5655 5654 5653 5653 5653 5654 5655 5655 5655 5656 5656 5656 5656 5657 5657 5658 5659 5659 5660 5661 5661 5661 5661 5661 5661 5661 5660 5660 5659
5683 5677 5673 5669 5665 5661 5658 5655 5652 5650 5649 5648 5647 5646 5646 5645 5645 5645 5644 5644 5645 5646 5646 5647 5648 5648 5649 5649 5649 5650 5651 5651 5652 5653 5654 5655 5655 5655 5655 5655 5655 5655 5654 5653
5669 5664 5660 5656 5652 5648 5645 5642 5640 5638 5636 5635 5635 5635 5635 5635 5635 5635 5635 5635 5636 5637 5638 5639 5639 5640 5641 5641 5641 5642 5643 5644 5645 5646 5646 5647 5648 5648 5649 5649 5649 5648 5648 5647
5653 5648 5644 5640 5636 5633 5630 5628 5626 5624 5622 5621 5621 5622 5623 5624 5625 5625 5625 5625 5627 5628 5629 5630 5630 5631 5632 5633 5633 5634 5634 5635 5636 5637 5638 5639 5640 5641 5642 5642 5642 5642 5641 5641
5637 5632 5627 5624 5620 5617 5614 5612 5610 5609 5607 5606 5606 5607 5609 5611 5612 5613 5614 5615 5617 5619 5620 5620 5621 5622 5624 5625 5625 5626 5626 5627 5628 5628 5629 5631 5632 5633 5634 5634 5635 5635 5634 5634
5619 5614 5609 5605 5601 5598 5596 5594 5593 5592 5591 5591 5590 5591 5593 5596 5598 5601 5603 5605 5608 5609 5610 5609 5610 5612 5614 5616 5617 5618 5618 5619 5619 5619 5620 5622 5623 5624 5626 5626 5627 5627 5627 5627
5599 5592 5587 5582 5578 5575 5573 5572 5572 5572 5573 5573 5574 5575 5578 5581 5584 5587 5590 5594 5597 5598 5599 5599 5601 5603 5605 5606 5607 5609 5610 5610 5611 5611 5612 5613 5614 5615 5617 5618 5619 5620 5620 5620
5575 5568 5562 5556 5551 5549 5547 5546 5546 5547 5550 5552 5555 5557 5560 5564 5568 5572 5577 5581 5584 5585 5587 5589 5591 5593 5595 5596 5597 5599 5601 5602 5603 5603 5603 5604 5605 5607 5608 5610 5611 5612 5612 5613
5551 5544 5538 5532 5526 5523 5520 5519 5519 5520 5523 5528 5533 5537 5542 5547 5551 5557 5562 5567 5570 5573 5575 5578 5580 5582 5584 5585 5587 5590 5592 5593 5594 5595 5595 5596 5597 5598 5600 5602 5603 5604 5604 5605
5531 5523 5517 5511 5505 5500 5497 5496 5495 5496 5499 5504 5510 5517 5523 5529 5535 5541 5547 5552 5556 5560 5563 5566 5569 5571 5572 5574 5577 5580 5582 5584 5586 5587 5588 5588 5589 5591 5592 5594 5595 5596 5596 5597
5513 5506 5499 5493 5487 5482 5479 5477 5476 5478 5480 5484 5490 5497 5504 5512 5520 5527 5532 5538 5543 5547 5550 5554 5556 5559 5561 5563 5567 5570 5573 5576 5578 5579 5580 5581 5582 5583 5585 5586 5587 5588 5589 5589
5498 5490 5484 5478 5472 5468 5464 5462 5461 5462 5465 5469 5474 5481 5488 5497 5505 5512 5519 5525 5529 5534 5538 5541 5544 5547 5550 5553 5557 5561 5564 5567 5569 5571 5573 5574 5575 5576 5578 5579 5580 5581 5581 5582
5487 5481 5475 5469 5464 5460 5456 5454 5453 5453 5454 5457 5461 5468 5475 5484 5492 5500 5507 5512 5517 5522 5526 5529 5532 5536 5539 5543 5547 5551 5555 5558 5561 5563 5566 5567 5568 5570 5571 5572 5573 5574 5575 5575